Location: Unspecified
(0.0000°N, 0.0000°E)
Time: 02:28:23
(UTC+00:00)

deb Explorer IX - Pass Details

Date: 14 December 2018
Orbit: 538 x 1115 km, 38.8° (Epoch: 14 January)

Event Time Altitude Azimuth Distance (km) Brightness Sun altitude
Rises 03:30:24 0° 302° (WNW) 3,272 - -32.7°
Reaches altitude 10° 03:32:45 10° 299° (WNW) 2,431 - -32.2°
Maximum altitude 03:38:30 58° 220° (SW) 1,074 - -30.9°
Exits shadow 03:39:12 55° 193° (SSW) 1,120 ? -30.8°
Drops below altitude 10° 03:45:13 10° 142° (SE) 2,822 ? -29.4°
Sets 03:48:08 0° 138° (SE) 3,839 ? -28.8°
